Regional Weather Roundup
Issued by NWS Goodland, KS

Home | Current Version | Previous Version | Text Only | Print | Product List | Glossary On
Versions: 1 2 3 4 5 6 7 8 9 10 11 12 13 14 15 16 17 18 19 20 21 22 23 24 25 26 27 28 29 30 31 32 33 34 35 36 37 38 39 40 41 42 43 44 45 46 47 48 49 50
000
ASUS43 KGLD 050208
RWRGLD

GOODLAND FORECAST AREA HOURLY WEATHER ROUNDUP
NATIONAL WEATHER SERVICE GOODLAND KS
700 PM MST SUN DEC 04 2016

...OFFICIAL OBSERVATIONS...

CITY           SKY/WX    TMP DP  RH WIND       PRES   REMARKS
GOODLAND KS    CLEAR     36  12  37 S16       29.84F
HILL CITY KS   CLEAR     35  19  52 SW8       29.91F
IMPERIAL NEB   CLEAR     38  12  34 S15       29.78F
MCCOOK NEB     CLEAR     35  15  44 S8        29.83F
AKRON CO       CLOUDY    37  12  35 SW10      29.78S
BURLINGTON CO  CLOUDY    33  11  39 S14       29.84F
LIMON CO       CLOUDY    22   8  55 S5        29.85F
$$

...UNOFFICIAL OBSERVATIONS...

CITY           SKY/WX    TMP DP  RH WIND       PRES   REMARKS
COLBY KS       CLEAR     39  18  41 S10       29.87F
LENORA KS        N/A     34  32  92 MISG        N/A
NORTON KS      CLEAR     36  16  44 S7        29.87F
SHARON SPRINGS   N/A     34  15  44 S15G22      N/A
TRENTON NEB      N/A     35  32  89 SW6         N/A
KIT CARSON CO    N/A     31  11  43 CALM        N/A
YUMA CO        FAIR      34  12  40 SW13      29.78S
$$




USA.gov is the U.S. government's official web portal to all federal, state and local government web resources and services.